Location: Newark
(40.9833°N, 0.0333°W)
Time: 02:31:14
(UTC+00:00)

Altair - Pass Details

Date: 05 November 2020
Orbit: 1502 x 1682 km, 47.2° (Epoch: 02 December)

Event Time Altitude Azimuth Distance (km) Brightness Sun altitude
Rises 00:28:25 0° 184° (S) 4,626 - -63.0°
Reaches altitude 10° 00:32:31 10° 168° (SSE) 3,642 - -62.7°
Maximum altitude 00:38:30 20° 126° (SE) 2,965 - -62.1°
Drops below altitude 10° 00:44:30 10° 84° (E) 3,675 - -61.6°
Exits shadow 00:45:59 - 78° (ENE) 4,007 9.9 -61.4°
Sets 00:48:37 0° 69° (ENE) 4,682 10.4 -61.1°
